When you browse on this site, cookies collect data to enhance your experience and personalize the content and advertising you see.
Visit our Privacy Policy to learn more. By continuing to use the site, you agree to this use of cookies and data.
  • In United Kingdom
  • List of Countries
  • For 7 days
  • Water Temperature
  • Satellite Maps
  • Weather Map
  • Weather Widgets
  • user-avatar
    Login

    Hourly Weather Trashigang

    Today, 17 November, Saturday

    Time Temperature Precipitation Wind Pressure Humidity
    00:00 +11°C° 0 mm 1 mps 625 mmHg 90%
    01:00 +11°C° 0.4 mm 1 mps 625 mmHg 90%
    02:00 +11°C° 0.4 mm 1 mps 624 mmHg 89%
    03:00 +11°C° 0.4 mm 1 mps 624 mmHg 88%
    04:00 +10°C° 0.2 mm 1 mps 624 mmHg 87%
    05:00 +10°C° 0.2 mm 1 mps 624 mmHg 86%
    06:00 +10°C° 0.2 mm 1 mps 624 mmHg 85%
    07:00 +12°C° 0.1 mm 1 mps 625 mmHg 80%
    08:00 +13°C° 0.1 mm 1 mps 626 mmHg 76%
    09:00 +15°C° 0.1 mm 1 mps 626 mmHg 71%
    10:00 +16°C° 0.2 mm 1 mps 626 mmHg 68%
    11:00 +16°C° 0.2 mm 2 mps 626 mmHg 65%
    12:00 +17°C° 0.2 mm 2 mps 625 mmHg 61%
    13:00 +17°C° 0.2 mm 2 mps 625 mmHg 63%
    14:00 +16°C° 0.2 mm 2 mps 624 mmHg 66%
    15:00 +16°C° 0.2 mm 2 mps 624 mmHg 68%
    16:00 +14°C° 0.1 mm 1 mps 623 mmHg 76%
    17:00 +12°C° 0.1 mm 1 mps 623 mmHg 84%
    18:00 +10°C° 0.1 mm 1 mps 623 mmHg 92%
    19:00 +10°C° 0 mm 1 mps 624 mmHg 89%
    20:00 +10°C° 0 mm 1 mps 624 mmHg 86%
    21:00 +10°C° 0 mm 1 mps 624 mmHg 82%
    22:00 +9°C° 0 mm 1 mps 624 mmHg 80%
    23:00 +9°C° 0 mm 1 mps 625 mmHg 78%

    Tomorrow, 18 November, Sunday

    Time Temperature Precipitation Wind Pressure Humidity
    00:00 +9°C° 0 mm 1 mps 625 mmHg 76%
    01:00 +9°C° 0 mm 1 mps 625 mmHg 74%
    02:00 +9°C° 0 mm 1 mps 625 mmHg 72%
    03:00 +9°C° 0 mm 1 mps 624 mmHg 70%
    04:00 +9°C° 0 mm 1 mps 625 mmHg 69%
    05:00 +8°C° 0 mm 1 mps 625 mmHg 67%
    06:00 +8°C° 0 mm 1 mps 625 mmHg 66%
    07:00 +11°C° 0 mm 1 mps 626 mmHg 62%
    08:00 +13°C° 0 mm 1 mps 628 mmHg 59%
    09:00 +16°C° 0 mm 1 mps 629 mmHg 55%
    10:00 +16°C° 0.1 mm 1 mps 629 mmHg 58%
    11:00 +16°C° 0.1 mm 2 mps 628 mmHg 61%
    12:00 +17°C° 0.1 mm 2 mps 628 mmHg 64%
    13:00 +16°C° 0.1 mm 2 mps 627 mmHg 67%
    14:00 +16°C° 0.1 mm 2 mps 627 mmHg 70%
    15:00 +15°C° 0.1 mm 2 mps 626 mmHg 73%
    16:00 +14°C° 0.1 mm 1 mps 626 mmHg 81%
    17:00 +12°C° 0.1 mm 1 mps 626 mmHg 88%
    18:00 +10°C° 0.1 mm 0 mps 625 mmHg 95%
    19:00 +11°C° 0.1 mm 1 mps 626 mmHg 94%
    20:00 +10°C° 0.1 mm 1 mps 626 mmHg 93%
    21:00 +10°C° 0.1 mm 1 mps 627 mmHg 91%
    22:00 +10°C° 0 mm 1 mps 626 mmHg 90%
    23:00 +9°C° 0 mm 1 mps 626 mmHg 89%

    Day after tomorrow, 19 November, Monday

    Time Temperature Precipitation Wind Pressure Humidity
    00:00 +9°C° 0 mm 1 mps 626 mmHg 87%
    01:00 +9°C° 0 mm 1 mps 626 mmHg 86%
    02:00 +9°C° 0 mm 1 mps 626 mmHg 84%
    03:00 +8°C° 0 mm 1 mps 625 mmHg 83%
    04:00 +8°C° 0 mm 1 mps 626 mmHg 81%
    05:00 +8°C° 0 mm 1 mps 626 mmHg 79%
    06:00 +8°C° 0 mm 1 mps 626 mmHg 77%
    07:00 +11°C° 0 mm 1 mps 627 mmHg 68%
    08:00 +13°C° 0 mm 1 mps 629 mmHg 60%
    09:00 +16°C° 0 mm 1 mps 630 mmHg 51%
    10:00 +18°C° 0 mm 1 mps 630 mmHg 50%
    11:00 +18°C° 0 mm 2 mps 629 mmHg 49%
    12:00 +18°C° 0 mm 2 mps 629 mmHg 48%
    13:00 +18°C° 0 mm 2 mps 629 mmHg 51%
    14:00 +17°C° 0 mm 2 mps 628 mmHg 54%
    15:00 +17°C° 0 mm 2 mps 627 mmHg 57%
    16:00 +15°C° 0 mm 1 mps 627 mmHg 67%
    17:00 +12°C° 0 mm 1 mps 626 mmHg 77%
    18:00 +10°C° 0 mm 1 mps 626 mmHg 88%
    19:00 +10°C° 0 mm 1 mps 626 mmHg 86%
    20:00 +10°C° 0 mm 1 mps 627 mmHg 83%
    21:00 +9°C° 0 mm 1 mps 627 mmHg 81%
    22:00 +9°C° 0 mm 1 mps 627 mmHg 79%
    23:00 +9°C° 0 mm 1 mps 627 mmHg 76%

    20 November, Tuesday

    Time Temperature Precipitation Wind Pressure Humidity
    00:00 +9°C° 0 mm 1 mps 627 mmHg 74%
    01:00 +9°C° 0 mm 1 mps 626 mmHg 72%
    02:00 +9°C° 0 mm 1 mps 626 mmHg 71%
    03:00 +8°C° 0 mm 1 mps 626 mmHg 69%
    04:00 +8°C° 0 mm 1 mps 626 mmHg 68%
    05:00 +8°C° 0 mm 1 mps 626 mmHg 66%
    06:00 +8°C° 0 mm 1 mps 626 mmHg 65%
    07:00 +11°C° 0 mm 1 mps 627 mmHg 58%
    08:00 +14°C° 0 mm 1 mps 629 mmHg 51%
    09:00 +16°C° 0 mm 1 mps 630 mmHg 45%
    10:00 +18°C° 0 mm 1 mps 630 mmHg 45%
    11:00 +18°C° 0 mm 2 mps 629 mmHg 45%
    12:00 +19°C° 0 mm 2 mps 629 mmHg 45%
    13:00 +18°C° 0 mm 2 mps 628 mmHg 48%
    14:00 +18°C° 0 mm 2 mps 628 mmHg 52%
    15:00 +17°C° 0 mm 2 mps 627 mmHg 56%
    16:00 +15°C° 0 mm 1 mps 626 mmHg 67%
    17:00 +12°C° 0 mm 1 mps 626 mmHg 77%
    18:00 +10°C° 0 mm 1 mps 625 mmHg 88%
    19:00 +10°C° 0 mm 1 mps 626 mmHg 86%
    20:00 +10°C° 0 mm 1 mps 626 mmHg 84%
    21:00 +9°C° 0 mm 1 mps 627 mmHg 83%
    22:00 +9°C° 0 mm 1 mps 627 mmHg 80%
    23:00 +9°C° 0 mm 1 mps 626 mmHg 77%

    21 November, Wednesday

    Time Temperature Precipitation Wind Pressure Humidity
    00:00 +9°C° 0 mm 1 mps 626 mmHg 74%
    01:00 +8°C° 0 mm 1 mps 626 mmHg 71%
    02:00 +8°C° 0 mm 1 mps 626 mmHg 68%
    03:00 +8°C° 0 mm 1 mps 626 mmHg 65%
    04:00 +8°C° 0 mm 1 mps 626 mmHg 63%
    05:00 +8°C° 0 mm 1 mps 626 mmHg 60%
    06:00 +8°C° 0 mm 1 mps 626 mmHg 58%
    07:00 +11°C° 0 mm 1 mps 627 mmHg 52%
    08:00 +14°C° 0 mm 1 mps 629 mmHg 46%
    09:00 +16°C° 0 mm 1 mps 630 mmHg 40%
    10:00 +18°C° 0 mm 1 mps 630 mmHg 41%
    11:00 +18°C° 0 mm 2 mps 630 mmHg 41%
    12:00 +19°C° 0 mm 2 mps 629 mmHg 41%
    13:00 +18°C° 0 mm 2 mps 629 mmHg 46%
    14:00 +18°C° 0 mm 2 mps 628 mmHg 50%
    15:00 +17°C° 0 mm 2 mps 627 mmHg 54%
    16:00 +15°C° 0 mm 1 mps 627 mmHg 64%
    17:00 +13°C° 0 mm 1 mps 627 mmHg 75%
    18:00 +10°C° 0 mm 1 mps 626 mmHg 85%
    19:00 +10°C° 0 mm 1 mps 627 mmHg 82%
    20:00 +10°C° 0 mm 1 mps 627 mmHg 79%
    21:00 +9°C° 0 mm 2 mps 628 mmHg 75%
    22:00 +9°C° 0 mm 2 mps 627 mmHg 72%
    23:00 +9°C° 0 mm 2 mps 627 mmHg 69%

    22 November, Thursday

    Time Temperature Precipitation Wind Pressure Humidity
    00:00 +8°C° 0 mm 2 mps 627 mmHg 65%
    01:00 +8°C° 0 mm 2 mps 627 mmHg 63%
    02:00 +8°C° 0 mm 2 mps 626 mmHg 60%
    03:00 +8°C° 0 mm 2 mps 626 mmHg 57%
    04:00 +8°C° 0 mm 2 mps 626 mmHg 55%
    05:00 +8°C° 0 mm 2 mps 626 mmHg 53%
    06:00 +8°C° 0 mm 2 mps 626 mmHg 51%
    07:00 +12°C° 0 mm 1 mps 628 mmHg 46%
    08:00 +15°C° 0 mm 1 mps 629 mmHg 42%
    09:00 +19°C° 0 mm 1 mps 631 mmHg 37%
    10:00 +20°C° 0 mm 1 mps 630 mmHg 37%
    11:00 +20°C° 0 mm 2 mps 630 mmHg 38%
    12:00 +21°C° 0 mm 2 mps 629 mmHg 38%
    13:00 +20°C° 0 mm 2 mps 629 mmHg 42%
    14:00 +19°C° 0 mm 2 mps 628 mmHg 45%
    15:00 +19°C° 0 mm 2 mps 628 mmHg 49%
    16:00 +16°C° 0 mm 1 mps 627 mmHg 60%
    17:00 +14°C° 0 mm 1 mps 627 mmHg 70%
    18:00 +11°C° 0 mm 1 mps 626 mmHg 81%
    19:00 +11°C° 0 mm 1 mps 627 mmHg 79%
    20:00 +11°C° 0 mm 1 mps 627 mmHg 76%
    21:00 +9°C° 0 mm 2 mps 627 mmHg 74%
    22:00 +9°C° 0 mm 2 mps 627 mmHg 72%
    23:00 +9°C° 0 mm 2 mps 627 mmHg 70%
    Show more